This is the latest recevied weather packets stored in our database for station/object VA3BOO. If no packets are shown the sender has not sent any weather packets the latest 1 day(s).
| Time | Temp. | Humidity | Pressure | Rain* | Wind** | Luminosity | Snow |
|---|---|---|---|---|---|---|---|
| 1777999504 | 16.67° C | 68% | 1002.3 hPa | 0 mm | 0.89 m/s, 199° | 79 W/m² | - |
| 1777999204 | 16.67° C | 67% | 1002.3 hPa | 0 mm | 0.45 m/s, 202° | 103 W/m² | - |
| 1777998904 | 16.67° C | 68% | 1002.3 hPa | 0 mm | 0.89 m/s, 181° | 150 W/m² | - |
| 1777998604 | 16.67° C | 67% | 1002.3 hPa | 0 mm | 1.34 m/s, 188° | 148 W/m² | - |
| 1777998304 | 16.67° C | 67% | 1002.1 hPa | 0 mm | 1.34 m/s, 184° | 154 W/m² | - |
| 1777998005 | 16.67° C | 68% | 1001.9 hPa | 0 mm | 1.34 m/s, 202° | 206 W/m² | - |
| 1777997704 | 16.67° C | 67% | 1001.7 hPa | 0 mm | 1.34 m/s, 211° | 183 W/m² | - |
| 1777997405 | 16.67° C | 68% | 1001.7 hPa | 0 mm | 0.89 m/s, 225° | 166 W/m² | - |
| 1777997105 | 16.11° C | 69% | 1001.7 hPa | 0 mm | 0.89 m/s, 209° | 128 W/m² | - |
| 1777996804 | 16.11° C | 70% | 1001.7 hPa | 0 mm | 0.89 m/s, 183° | 94 W/m² | - |
| 1777996505 | 15.56° C | 71% | 1001.5 hPa | 0 mm | 0.89 m/s, 162° | 92 W/m² | - |
| 1777996204 | 16.11° C | 70% | 1001.6 hPa | 0 mm | 0.89 m/s, 170° | 66 W/m² | - |
| 1777995905 | 16.67° C | 69% | 1001.5 hPa | 0 mm | 0.89 m/s, 171° | 54 W/m² | - |
| 1777995604 | 16.67° C | 68% | 1001.6 hPa | 0 mm | 0.89 m/s, 146° | 46 W/m² | - |
| 1777995305 | 17.22° C | 68% | 1001.6 hPa | 0 mm | 0.89 m/s, 197° | 51 W/m² | - |
| 1777995004 | 17.22° C | 67% | 1001.8 hPa | 0 mm | 0.89 m/s, 200° | 46 W/m² | - |
| 1777994704 | 17.78° C | 67% | 1001.7 hPa | 0 mm | 0.89 m/s, 193° | 54 W/m² | - |
| 1777994404 | 17.78° C | 66% | 1001.7 hPa | 0 mm | 0.89 m/s, 168° | 74 W/m² | - |
| 1777994105 | 17.78° C | 65% | 1001.8 hPa | 0 mm | 0.89 m/s, 190° | 132 W/m² | - |
| 1777993804 | 18.33° C | 64% | 1001.7 hPa | 0 mm | 0.89 m/s, 209° | 93 W/m² | - |
| 1777993504 | 18.33° C | 64% | 1001.5 hPa | 0 mm | 1.34 m/s, 215° | 184 W/m² | - |
| 1777993204 | 18.89° C | 64% | 1001.5 hPa | 0 mm | 1.34 m/s, 229° | 182 W/m² | - |
| 1777992905 | 18.89° C | 64% | 1001.4 hPa | 0 mm | 1.34 m/s, 206° | 248 W/m² | - |
| 1777992604 | 18.89° C | 62% | 1001.2 hPa | 0 mm | 1.79 m/s, 196° | 328 W/m² | - |
| 1777992304 | 18.89° C | 62% | 1001.1 hPa | 0 mm | 1.34 m/s, 208° | 317 W/m² | - |
* Rain latest hour (hover to see other rain measurements)
** Current wind speed in m/s (hover to see current wind gust speed)